Location: Kershaw
(34.5481°N, 80.5823°W)
Time: 16:09:30
(UTC+00:00)

Courier 1B Rocket - Pass Details

Date: 26 September 2022
Orbit: 920 x 1202 km, 28.2° (Epoch: 08 December)

Event Time Altitude Azimuth Distance (km) Brightness Sun altitude
Rises 06:53:02 0° 267° (W) 3,573 - -49.5°
Reaches altitude 10° 06:55:47 10° 259° (W) 2,651 - -49.1°
Maximum altitude 07:01:34 37° 194° (SSW) 1,462 - -48.3°
Drops below altitude 10° 07:07:42 10° 129° (SE) 2,800 - -47.4°
Sets 07:10:41 0° 121° (ESE) 3,798 - -47.0°
